Flag for Germany Weather past 2 weeks in Höxter, North Rhine-Westphalia, Germany

Now
61 °F

Partly sunny.


Feels Like: 61 °F
Forecast: 44 / 65 °F
Wind: 2 mph from East

Location: Bad Lippspringe

Current Time: May 22, 2015 at 12:35:06 PM

Latest Report: May 22, 2015 at 12:00 PM


Visibility: 16 mi

Pressure: 30.31 "Hg

Humidity: 49%

Dew point: 41 °F

Location of HöxterLocation

Historic Weather in Höxter — Graph

°F

Höxter temperature yesterday

Maximum temperature yesterday: 61 °F (at 6:00 PM)
Minimum temperature yesterday: 41 °F (at 2:00 AM)
Average temperature yesterday: 51 °F

Past Weeks' High & Low Weather Summary

 TemperatureHumidityPressure
High78 °F (May 12, 1:00 PM)98% (May 17, 5:00 AM)30.35 "Hg (May 17, 5:00 AM)
Low35 °F (May 17, 5:00 AM)37% (May 10, 5:00 PM)29.62 "Hg (May 18, 9:00 PM)
Average54 °F67%30.06 "Hg
* Reported May 7 11:00 AM — May 22 11:00 AM, Höxter, Weather by CustomWeather, © 2015

Note: Actual official high and low records may vary slightly from our data, if they occured in-between our weather recording intervals... More about our weather records

Advertising

Höxter weather history for previous 24 hours

 ConditionsComfort  
Time TempWeatherWind HumidityBarometerVisibility
11:00 AM
Fri, May 22
60 °FPartly sunny.2 mph51%30.32 "Hg14 mi
10:00 AM57 °FSunny.1 mph53%30.33 "Hg18 mi
9:00 AM53 °FSunny.2 mph70%30.34 "Hg11 mi
8:00 AM49 °FSunny.2 mph79%30.34 "Hg7 mi
7:00 AM45 °FSunny.1 mph86%30.35 "Hg8 mi
6:00 AM39 °FSunny.1 mph94%30.34 "Hg7 mi
5:00 AM41 °FClear.1 mph93%30.35 "Hg11 mi
4:00 AM41 °FClear.1 mph93%30.34 "Hg11 mi
3:00 AM44 °FPassing clouds.1 mph89%30.34 "Hg19 mi
2:00 AM49 °FOvercast.1 mph82%30.34 "Hg22 mi
1:00 AM51 °FOvercast.1 mph78%30.33 "Hg25 mi
12:00 AM51 °FOvercast.1 mph76%30.32 "Hg25 mi
11:00 PM
Thu, May 21
51 °FOvercast.1 mph76%30.32 "Hg28 mi
10:00 PM53 °FOvercast.1 mph69%30.31 "Hg31 mi
9:00 PM54 °FOvercast.2 mph63%30.29 "Hg31 mi
8:00 PM60 °FPartly sunny.2 mph41%30.27 "Hg31 mi
7:00 PM60 °FSunny.2 mph38%30.27 "Hg28 mi
6:00 PM61 °FPassing clouds.3 mph38%30.27 "Hg31 mi
5:00 PM60 °FPartly sunny.5 mph39%30.27 "Hg22 mi
4:00 PM60 °FOvercast.5 mph43%30.27 "Hg19 mi
3:00 PM58 °FPartly sunny.5 mph53%30.26 "Hg22 mi
2:00 PM56 °FOvercast.5 mph54%30.27 "Hg17 mi
1:00 PM53 °FOvercast.3 mph64%30.27 "Hg15 mi
Weather by CustomWeather, © 2015

See weather overviewHow to use our weather pages